Temperature
18 19 19 19 19 20 19 19 18 18 17 16 16 15 15 14 14 14 13 13 13 13 13 13 13 13 12 12 12 12 12 11 11 11 10 9 9 8 8 7 7 6 6
18 18 18 19 19 19 19 19 18 18 17 17 16 16 15 14 14 14 13 13 13 13 13 13 13 12 12 12 11 11 11 11 10 10 10 9 8 7 7 7 6 6 6
18 18 18 18 18 18 18 18 18 18 17 16 16 15 14 14 13 13 13 13 13 13 13 12 12 12 11 11 11 11 11 10 10 9 9 8 7 7 7 6 5 5 4
17 17 17 18 18 18 18 18 18 17 17 16 15 15 15 15 14 14 13 13 12 12 12 12 12 11 11 11 10 10 10 10 9 9 8 7 6 6 6 5 5 4 3
17 17 17 17 17 17 17 17 17 17 16 16 15 15 15 15 15 13 12 12 12 12 12 11 11 11 10 10 10 10 9 9 8 8 7 6 5 4 3 4 4 4 3
17 17 16 16 16 16 16 17 16 16 16 15 15 15 14 15 15 14 12 12 12 11 11 11 10 10 10 10 10 9 9 8 7 7 6 5 5 3 2 2 2 2 3
16 16 16 16 16 16 16 16 16 16 15 15 14 13 13 14 15 15 13 12 11 11 11 10 10 9 9 9 9 9 8 7 7 6 5 5 4 3 2 1 1 0 1
15 15 15 15 15 15 15 15 15 15 14 14 13 12 12 13 13 13 13 12 11 11 10 9 9 9 9 8 8 8 7 6 6 5 5 4 3 2 2 0 -1 -2 -2
14 14 14 14 14 14 14 14 14 14 13 13 12 11 11 11 12 12 12 11 10 10 9 9 8 8 8 8 7 7 6 6 5 4 4 3 2 2 1 -0 -1 -3 -4
13 13 13 13 13 13 13 13 13 13 12 12 11 11 10 11 11 11 11 10 10 9 8 8 8 8 7 7 6 6 5 5 4 3 3 2 2 1 0 -1 -2 -3 -4
12 12 12 12 12 12 12 12 12 12 11 10 10 10 10 10 10 10 10 10 9 8 8 8 7 7 7 6 6 5 4 4 3 2 2 1 0 -0 -1 -2 -3 -4 -5
11 11 11 11 11 11 12 12 11 10 10 10 9 9 9 9 9 9 9 8 8 7 7 7 7 6 6 5 5 4 3 3 2 2 1 0 -0 -1 -2 -3 -4 -5 -5
9 9 10 10 10 11 11 10 10 9 9 8 8 8 8 8 9 8 8 7 7 7 7 6 6 5 5 4 4 3 2 2 1 1 0 -0 -1 -2 -3 -4 -5 -5 -6
8 8 8 9 9 9 9 9 8 8 8 7 7 7 7 8 8 7 7 7 7 6 6 5 5 5 4 3 3 2 2 1 1 0 -0 -1 -2 -3 -4 -5 -6 -6 -7
6 7 7 7 7 7 7 7 7 7 6 6 6 6 6 6 7 6 6 6 6 5 5 5 4 4 3 3 2 2 1 1 0 -0 -1 -2 -3 -4 -5 -6 -7 -7 -8
5 6 6 6 6 6 6 6 5 5 5 4 4 5 5 6 6 6 6 6 5 5 4 4 3 3 2 2 1 1 1 0 -0 -1 -2 -3 -4 -5 -6 -7 -7 -8 -8
5 5 5 5 5 5 5 4 4 3 3 3 3 4 5 5 5 5 5 5 4 4 4 3 3 2 2 1 1 0 -0 -1 -1 -2 -3 -4 -5 -6 -7 -7 -8 -8 -8
4 4 4 4 4 4 3 3 2 2 2 2 3 4 5 5 5 5 4 4 4 3 3 2 2 1 1 0 -0 -1 -1 -2 -2 -3 -4 -5 -6 -7 -7 -8 -8 -8 -8
4 4 3 3 3 3 2 2 1 1 1 2 3 4 4 5 4 4 4 3 3 2 2 1 1 0 0 -0 -1 -2 -2 -3 -3 -4 -5 -6 -7 -7 -8 -8 -8 -8 -8
3 3 3 2 2 1 1 1 0 1 1 2 3 4 4 4 4 3 3 2 2 1 1 1 0 -0 -1 -2 -2 -3 -3 -4 -4 -5 -5 -6 -7 -8 -8 -9 -9 -9 -8
3 2 2 1 1 0 0 0 0 1 2 2 3 3 3 3 3 3 2 2 1 1 0 -0 -1 -1 -2 -3 -3 -4 -5 -6 -7 -7 -7 -7 -8 -8 -8 -9 -9 -9 -9
2 1 1 1 0 0 0 0 1 1 2 3 3 3 3 3 2 2 1 1 0 0 -0 -1 -2 -2 -3 -4 -5 -6 -7 -7 -8 -8 -7 -8 -8 -9 -9 -8 -9 -9 -9
1 1 1 0 -0 0 1 2 2 2 3 3 3 3 2 2 1 1 1 0 -0 -1 -1 -2 -2 -3 -4 -5 -6 -6 -6 -7 -8 -8 -8 -8 -8 -8 -8 -8 -9 -9 -9
1 1 1 1 0 1 1 2 3 3 3 3 2 2 2 1 1 0 -0 -0 -1 -2 -2 -3 -3 -4 -4 -5 -6 -6 -7 -7 -7 -8 -8 -8 -8 -8 -8 -8 -8 -8 -8
1 1 1 1 1 2 2 2 3 3 3 3 2 1 1 0 -0 -1 -1 -1 -2 -2 -3 -4 -4 -5 -5 -6 -7 -8 -8 -8 -9 -9 -9 -8 -8 -8 -8 -8 -8 -8 -8
1 1 1 2 2 2 2 2 2 2 3 2 1 1 0 -0 -1 -1 -2 -2 -3 -3 -4 -5 -5 -6 -7 -7 -8 -8 -8 -8 -9 -9 -9 -9 -9 -9 -8 -8 -8 -8 -8
Wind_Speed
13 12 12 11 11 11 11 12 13 14 12 10 10 9 7 6 5 4 8 10 12 14 10 7 7 6 6 6 6 4 5 3 4 3 2 1 1 2 3 2 0 1 3
14 13 12 11 11 10 10 10 12 14 14 11 10 7 7 6 5 4 6 10 12 13 11 8 7 7 7 7 6 4 3 2 4 3 2 3 2 2 2 2 2 1 0
14 13 12 12 11 11 10 10 11 12 13 13 10 9 8 6 4 5 5 7 11 12 12 10 8 7 7 6 6 5 4 2 2 4 3 2 1 4 3 2 1 1 1
12 11 11 11 11 11 10 10 11 12 13 15 14 16 11 8 6 6 6 8 10 11 12 12 10 8 7 7 6 5 4 3 2 1 2 2 2 0 4 4 3 2 3
9 9 10 10 9 9 9 10 10 11 13 15 17 16 12 8 10 10 11 9 8 9 11 12 10 9 7 7 7 5 4 3 3 2 1 1 0 2 2 5 5 5 4
5 6 7 7 7 7 7 7 10 11 12 15 17 16 16 16 17 15 13 10 8 8 9 11 9 8 7 7 6 5 6 5 3 2 1 1 0 1 1 3 4 5 5
4 5 6 6 7 7 7 7 9 10 12 14 15 14 16 17 19 17 15 14 11 9 9 10 9 8 7 6 6 6 5 4 2 1 0 1 0 1 1 3 5 5 5
6 7 7 6 7 8 8 8 10 9 11 13 13 13 15 13 12 13 14 13 11 10 10 10 10 9 8 7 6 5 4 3 2 2 1 1 2 1 1 2 4 6 4
8 8 8 7 7 8 8 9 11 10 12 12 13 15 15 13 14 13 13 12 12 12 12 12 11 9 7 7 6 4 3 3 2 1 0 1 2 2 2 2 2 4 6
8 9 8 7 7 7 7 9 10 11 12 13 14 13 13 14 15 14 15 15 14 13 13 12 11 9 7 6 5 4 3 1 1 2 2 3 2 2 2 3 4 5 7
9 9 8 7 7 6 7 9 10 12 13 14 14 15 14 14 15 14 15 16 15 14 13 12 10 9 7 6 4 3 3 2 3 3 3 4 3 3 3 3 4 5 6
8 8 8 6 5 4 6 8 10 13 14 15 16 15 15 15 15 16 15 15 15 13 12 11 10 8 7 5 3 2 2 2 3 4 3 4 3 4 4 4 5 5 6
8 7 6 4 2 2 7 10 12 14 15 16 16 16 15 15 16 17 16 15 14 13 11 10 9 8 6 4 2 1 1 3 4 4 4 5 4 5 5 5 5 6 8
7 6 4 1 2 5 9 13 14 15 15 16 16 16 15 16 17 16 15 14 13 12 10 9 8 7 5 3 2 2 3 4 5 5 5 5 5 6 5 6 7 7 8
6 5 2 2 4 8 10 13 14 14 14 15 15 15 15 16 16 16 15 14 13 12 10 9 8 6 4 3 4 4 4 5 6 6 6 5 8 10 10 8 7 7 7
3 2 2 4 7 10 12 13 13 13 13 14 14 15 17 17 16 15 15 14 12 10 9 8 6 5 4 4 3 4 4 6 7 7 6 7 8 12 15 17 17 16 12
1 2 4 6 9 10 12 12 12 13 14 14 16 16 17 17 16 16 14 13 10 9 8 6 5 4 5 3 2 5 5 6 7 7 7 7 8 12 7 13 17 16 21
3 4 6 8 10 11 12 12 13 14 14 15 16 16 17 17 15 14 13 10 8 7 6 5 4 3 3 3 2 7 6 7 7 7 7 7 7 9 12 9 8 9 12
6 6 8 10 11 12 12 13 13 13 14 15 15 15 16 16 15 13 11 9 7 7 5 4 3 1 1 1 3 7 4 6 7 8 8 9 8 16 20 12 10 12 12
9 9 10 12 12 12 12 14 13 14 14 14 15 14 14 14 13 12 10 7 7 6 4 3 1 0 1 1 4 7 3 5 6 7 8 14 16 19 21 13 12 15 14
11 11 11 11 11 11 12 13 14 14 14 15 15 14 13 12 12 10 8 7 6 4 2 1 1 1 1 2 6 9 4 5 6 6 7 8 19 22 24 22 13 17 18
11 11 11 11 11 11 13 14 14 14 14 15 15 13 12 10 10 9 7 6 5 3 1 1 2 2 2 3 7 10 12 12 7 7 7 10 21 24 25 19 19 23 19
10 11 12 13 11 11 12 15 14 14 15 15 14 12 11 9 8 8 7 4 3 3 2 2 2 3 3 5 10 12 15 17 10 9 16 20 24 22 15 17 21 17 9
10 10 12 13 13 13 13 13 14 13 14 14 12 10 10 8 7 6 4 4 3 3 3 3 3 4 4 4 4 5 8 12 11 10 15 20 21 17 16 15 12 8 9
9 9 11 13 14 14 13 12 12 13 14 13 11 9 8 7 6 5 4 5 4 3 2 2 2 4 4 8 14 11 8 8 10 12 7 7 8 7 8 9 8 8 9
10 11 12 14 14 13 13 11 10 12 13 11 9 7 6 5 5 4 3 4 2 2 1 2 4 4 8 14 16 17 18 19 19 12 7 8 8 9 10 11 12 11 11
Wind_Direction
244 239 236 230 221 210 202 191 178 175 173 173 172 170 165 153 140 136 136 137 132 126 123 118 112 113 117 118 116 112 96 45 357 355 340 287 206 207 171 170 139 206 196
242 240 236 233 228 219 204 195 183 177 176 177 172 162 140 122 106 98 104 117 119 122 125 120 119 116 113 101 96 95 99 67 35 38 6 349 327 305 228 177 196 244 41
238 238 236 234 230 225 212 203 193 182 174 165 150 130 107 97 101 105 102 105 115 119 125 123 119 116 112 110 103 99 101 117 67 54 81 92 298 321 314 267 224 233 309
238 239 239 238 231 224 215 206 197 186 173 163 160 158 162 159 156 138 123 115 117 121 125 125 121 115 113 115 113 100 102 107 114 85 63 111 125 63 318 319 324 354 333
229 236 237 237 237 227 213 207 199 188 175 169 165 165 161 141 134 132 129 125 123 124 127 125 121 119 117 115 107 97 84 96 101 97 75 53 28 205 217 284 305 325 317
249 247 243 239 241 237 219 207 196 187 175 168 165 167 159 149 147 148 144 138 133 128 126 124 121 117 118 119 115 108 88 83 85 73 81 115 159 315 277 278 301 299 292
314 293 276 260 244 235 222 205 191 182 169 163 164 164 155 153 156 154 151 147 144 142 138 131 124 119 118 116 108 101 100 96 95 63 45 52 293 264 262 278 290 295 299
307 296 285 274 261 238 215 199 188 177 164 159 159 152 145 149 153 152 150 148 147 143 137 130 122 122 124 122 115 117 131 138 183 226 188 239 266 266 251 260 294 304 292
295 287 284 278 269 250 218 197 184 171 160 154 146 142 143 145 146 144 140 138 139 140 135 129 127 128 128 125 125 135 160 171 203 206 236 262 259 250 251 254 250 267 291
298 298 291 282 272 250 220 195 177 163 152 144 141 141 138 139 141 141 140 139 139 136 133 130 128 126 124 128 137 144 148 161 228 196 237 264 264 269 266 262 261 253 271
298 295 294 291 280 249 210 179 165 148 139 133 130 131 132 136 137 137 136 136 134 134 133 131 130 130 132 137 142 155 157 208 259 258 247 259 266 268 270 270 268 265 268
301 295 293 290 281 231 179 155 145 135 130 128 128 129 132 135 135 133 133 133 132 131 129 128 127 127 126 127 134 153 172 235 260 272 277 279 284 282 277 273 271 274 275
306 301 302 308 318 142 131 126 125 124 123 125 128 131 135 136 133 132 131 129 126 122 119 117 117 117 114 109 92 68 321 291 280 274 270 271 278 279 277 282 284 284 291
310 302 296 353 42 94 108 112 114 118 122 126 132 136 136 134 130 127 125 122 119 117 113 109 108 110 112 108 73 20 329 307 298 288 277 269 264 265 271 282 277 281 284
310 313 328 95 94 99 104 109 112 116 123 128 132 133 130 126 122 120 118 116 114 112 109 108 109 113 119 97 59 8 334 324 313 304 294 287 288 291 291 288 279 285 285
309 324 54 97 110 110 109 110 114 118 123 128 129 127 125 122 119 117 114 111 108 108 108 113 121 126 114 97 42 346 328 318 309 302 299 298 295 297 301 304 304 302 301
67 65 80 95 103 107 111 114 117 120 124 127 127 125 122 119 117 116 113 113 112 113 114 116 118 116 122 112 9 332 325 305 295 294 295 299 300 307 294 294 299 299 299
107 97 95 94 97 102 106 109 115 121 125 126 124 122 120 118 115 113 112 112 114 117 117 115 111 113 145 136 350 333 330 306 300 300 298 296 294 298 301 291 292 284 291
98 95 96 101 103 106 111 116 119 122 124 124 122 120 119 118 116 115 113 113 114 111 109 107 104 92 137 156 340 336 320 306 307 309 314 316 303 305 310 313 303 297 294
93 96 99 103 107 111 116 122 124 124 122 119 116 115 115 116 114 113 110 107 107 107 110 117 135 167 235 288 325 329 310 309 309 308 308 312 311 310 314 312 303 303 302
99 102 103 106 112 118 121 122 121 119 118 116 112 109 107 108 109 108 107 107 106 108 116 137 252 270 267 319 320 323 317 294 296 301 302 302 311 311 311 311 304 300 304
109 111 112 114 117 123 124 120 117 116 113 110 106 104 103 106 110 109 105 103 103 97 83 52 359 347 355 333 318 322 325 324 314 307 301 304 311 312 313 313 307 308 312
113 117 120 118 116 117 121 121 120 118 114 109 106 105 102 99 102 105 105 100 89 73 50 31 360 341 347 337 338 336 330 325 322 309 312 314 315 316 313 310 313 318 312
118 123 122 119 115 113 114 116 119 118 114 110 108 106 105 100 90 84 85 88 77 59 35 18 1 346 341 337 339 326 317 317 314 306 309 315 314 314 315 316 316 310 301
112 113 115 113 111 112 112 113 116 117 112 109 107 104 101 103 96 83 71 79 83 89 63 21 0 344 325 320 326 326 317 314 308 314 309 309 312 316 318 315 311 309 310
113 109 108 110 111 111 110 109 112 116 115 112 108 105 103 99 99 98 81 78 105 92 14 325 322 318 318 323 327 325 323 323 322 324 317 314 316 316 316 316 316 314 312
Height
1443 1445 1447 1449 1452 1455 1458 1461 1463 1466 1469 1473 1476 1479 1482 1486 1490 1493 1496 1499 1501 1504 1506 1508 1510 1512 1514 1515 1516 1516 1516 1516 1515 1514 1512 1511 1511 1510 1509 1508 1508 1507 1505
1437 1438 1440 1442 1444 1447 1450 1454 1456 1459 1462 1466 1469 1473 1477 1481 1484 1488 1491 1494 1496 1499 1502 1505 1507 1509 1510 1512 1513 1513 1513 1513 1512 1512 1510 1509 1509 1507 1507 1506 1505 1504 1503
1430 1432 1434 1435 1438 1440 1443 1447 1450 1453 1456 1460 1463 1467 1470 1474 1478 1482 1485 1488 1491 1495 1498 1501 1504 1506 1507 1509 1510 1511 1510 1510 1510 1509 1509 1508 1506 1506 1505 1503 1502 1501 1499
1424 1426 1428 1430 1432 1434 1438 1440 1444 1447 1451 1453 1455 1458 1462 1465 1470 1474 1478 1482 1487 1491 1494 1498 1500 1502 1505 1506 1507 1508 1507 1507 1507 1506 1505 1506 1505 1504 1501 1500 1499 1497 1495
1418 1420 1422 1424 1426 1429 1431 1434 1437 1441 1444 1446 1448 1452 1456 1460 1464 1469 1473 1478 1482 1487 1490 1494 1497 1499 1501 1503 1504 1505 1505 1505 1504 1503 1503 1502 1501 1500 1498 1495 1494 1492 1491
1415 1416 1418 1419 1421 1423 1424 1427 1430 1433 1437 1440 1442 1446 1449 1453 1457 1462 1466 1472 1477 1482 1486 1489 1493 1496 1498 1500 1501 1502 1502 1502 1502 1501 1500 1499 1498 1496 1495 1492 1488 1485 1483
1413 1413 1414 1415 1415 1417 1418 1420 1423 1426 1430 1434 1436 1441 1443 1447 1452 1456 1460 1466 1471 1476 1481 1485 1489 1492 1495 1497 1498 1499 1499 1499 1499 1498 1497 1495 1494 1493 1491 1488 1484 1480 1476
1410 1410 1410 1410 1411 1411 1412 1414 1416 1420 1424 1428 1432 1436 1439 1443 1447 1451 1456 1462 1467 1473 1478 1482 1486 1490 1492 1494 1495 1496 1496 1496 1495 1494 1493 1492 1491 1489 1487 1485 1481 1475 1470
1408 1407 1406 1405 1405 1405 1406 1407 1410 1415 1419 1423 1428 1431 1434 1438 1443 1447 1453 1458 1464 1470 1475 1479 1483 1487 1489 1491 1492 1493 1493 1493 1492 1491 1490 1488 1486 1485 1483 1481 1478 1476 1467
1404 1402 1401 1399 1398 1398 1399 1401 1404 1409 1413 1418 1422 1426 1430 1435 1440 1444 1449 1455 1462 1467 1472 1477 1481 1484 1487 1489 1489 1490 1490 1489 1488 1487 1486 1484 1482 1480 1478 1476 1474 1471 1466
1400 1397 1395 1392 1391 1391 1392 1395 1399 1404 1408 1413 1418 1423 1427 1432 1437 1442 1448 1454 1460 1466 1471 1475 1479 1482 1485 1486 1487 1487 1486 1486 1485 1483 1481 1480 1478 1475 1473 1470 1468 1465 1462
1395 1392 1390 1387 1385 1384 1386 1389 1394 1399 1403 1409 1414 1420 1425 1430 1435 1440 1446 1453 1459 1465 1470 1474 1477 1480 1482 1484 1484 1484 1483 1482 1481 1479 1477 1475 1473 1470 1468 1465 1462 1459 1456
1391 1388 1385 1382 1381 1381 1383 1386 1391 1396 1401 1407 1412 1418 1423 1428 1433 1439 1446 1453 1459 1464 1469 1473 1476 1478 1480 1481 1481 1481 1480 1479 1477 1475 1473 1470 1468 1465 1462 1459 1456 1453 1449
1386 1383 1381 1380 1380 1380 1382 1385 1390 1395 1400 1406 1412 1417 1422 1427 1433 1440 1447 1453 1459 1464 1468 1472 1475 1477 1478 1478 1478 1478 1476 1475 1473 1471 1468 1465 1462 1459 1456 1453 1450 1446 1443
1384 1381 1379 1378 1379 1381 1384 1387 1391 1396 1401 1407 1412 1416 1422 1428 1434 1441 1448 1454 1459 1464 1468 1471 1473 1475 1475 1476 1475 1474 1472 1470 1468 1466 1463 1460 1457 1454 1451 1448 1445 1442 1437
1382 1380 1379 1379 1380 1383 1386 1389 1393 1398 1403 1408 1412 1417 1422 1429 1435 1442 1449 1454 1459 1464 1467 1470 1471 1472 1473 1473 1471 1470 1468 1466 1463 1461 1458 1455 1452 1449 1446 1443 1440 1437 1433
1381 1380 1379 1380 1382 1385 1388 1392 1396 1400 1405 1409 1413 1418 1424 1430 1437 1444 1450 1455 1460 1464 1466 1468 1469 1470 1470 1469 1468 1466 1464 1461 1459 1455 1452 1449 1446 1443 1439 1436 1433 1430 1427
1381 1381 1381 1382 1385 1387 1391 1395 1399 1403 1407 1411 1415 1421 1427 1433 1440 1446 1452 1456 1460 1463 1465 1467 1467 1468 1467 1466 1464 1462 1459 1457 1454 1451 1447 1444 1440 1437 1434 1430 1426 1423 1419
1383 1383 1384 1385 1387 1390 1394 1398 1402 1406 1410 1414 1419 1424 1431 1436 1442 1448 1453 1457 1460 1462 1464 1465 1465 1465 1464 1462 1460 1457 1454 1451 1449 1446 1442 1439 1435 1432 1429 1425 1419 1414 1410
1385 1385 1386 1388 1391 1394 1398 1402 1406 1410 1414 1418 1422 1429 1435 1440 1445 1450 1454 1457 1460 1462 1463 1463 1463 1462 1461 1459 1456 1453 1450 1446 1443 1440 1437 1434 1430 1427 1423 1419 1414 1408 1403
1387 1388 1390 1392 1395 1398 1402 1405 1409 1413 1417 1422 1427 1433 1439 1444 1448 1451 1455 1457 1459 1461 1461 1461 1460 1459 1457 1455 1453 1449 1446 1442 1438 1435 1431 1428 1424 1421 1418 1414 1409 1403 1399
1390 1391 1393 1396 1399 1403 1406 1409 1413 1417 1422 1427 1432 1437 1442 1446 1450 1452 1455 1457 1458 1459 1459 1458 1458 1456 1454 1452 1449 1446 1443 1439 1435 1430 1426 1422 1419 1416 1412 1408 1403 1399 1394
1393 1395 1397 1400 1404 1408 1411 1413 1417 1421 1426 1431 1436 1441 1445 1448 1451 1453 1455 1456 1457 1457 1457 1456 1455 1453 1451 1448 1445 1442 1438 1434 1430 1426 1422 1418 1414 1410 1406 1402 1398 1394 1389
1397 1399 1401 1404 1408 1412 1415 1418 1422 1427 1431 1435 1439 1443 1446 1449 1452 1454 1455 1455 1456 1455 1454 1453 1451 1449 1447 1444 1440 1437 1433 1429 1425 1421 1417 1413 1409 1405 1401 1397 1393 1388 1384
1400 1403 1405 1407 1411 1415 1419 1423 1427 1431 1435 1439 1442 1445 1448 1450 1452 1453 1454 1454 1454 1454 1452 1450 1448 1445 1443 1440 1437 1433 1429 1425 1421 1417 1413 1409 1404 1400 1396 1392 1388 1383 1379
1402 1405 1408 1410 1414 1418 1423 1427 1431 1435 1438 1441 1444 1447 1449 1451 1452 1453 1453 1453 1453 1451 1449 1447 1445 1442 1440 1436 1433 1430 1426 1422 1418 1414 1409 1405 1401 1396 1392 1387 1382 1378 1374